Location: Newark
(45.4422°N, 16.2769°E)
Time: 11:29:26
(UTC+00:00)

Courier 1B - Pass Details

Date: 13 December 2019
Orbit: 962 x 1209 km, 28.3° (Epoch: 17 January)

Event Time Altitude Azimuth Distance (km) Brightness Sun altitude
Rises 21:03:39 0° 242° (WSW) 3,915 - -59.1°
Reaches altitude 10° 21:07:08 10° 227° (SW) 3,001 - -59.6°
Maximum altitude 21:12:20 21° 182° (S) 2,361 - -60.3°
Drops below altitude 10° 21:17:41 10° 138° (SE) 3,104 - -61.0°
Sets 21:21:22 0° 123° (ESE) 4,090 - -61.5°
